QPF
0.00 0.00 0.00 0.00 0.00 0.00 0.00 0.00 0.00 0.00 0.00 0.00 0.00 0.00 0.00 0.00 0.00 0.00 0.00 0.00 0.00 0.00 0.00 0.00 0.00 0.00 0.00 0.00 0.00 0.01 0.06 0.05 0.03 0.03 0.01 0.00 0.00 0.00 0.00 0.00 0.00 0.00 0.00 0.00 0.00
0.00 0.00 0.00 0.00 0.00 0.00 0.00 0.00 0.00 0.00 0.00 0.00 0.00 0.00 0.00 0.00 0.00 0.00 0.00 0.00 0.00 0.00 0.00 0.00 0.00 0.00 0.00 0.00 0.00 0.00 0.06 0.08 0.03 0.03 0.04 0.00 0.00 0.00 0.00 0.00 0.00 0.00 0.00 0.00 0.00
0.00 0.00 0.00 0.00 0.00 0.00 0.00 0.00 0.00 0.00 0.00 0.00 0.00 0.00 0.00 0.00 0.00 0.00 0.00 0.00 0.00 0.00 0.00 0.00 0.00 0.00 0.00 0.00 0.00 0.00 0.03 0.13 0.09 0.01 0.03 0.00 0.00 0.00 0.00 0.00 0.00 0.00 0.00 0.00 0.00
0.00 0.00 0.00 0.00 0.00 0.00 0.00 0.00 0.00 0.00 0.00 0.00 0.00 0.00 0.00 0.00 0.00 0.00 0.00 0.00 0.00 0.00 0.00 0.00 0.00 0.00 0.00 0.00 0.00 0.00 0.08 0.14 0.14 0.05 0.01 0.00 0.00 0.08 0.01 0.00 0.00 0.00 0.00 0.00 0.00
0.00 0.00 0.00 0.00 0.00 0.00 0.00 0.00 0.00 0.00 0.00 0.00 0.00 0.00 0.00 0.00 0.00 0.00 0.00 0.00 0.00 0.00 0.00 0.00 0.00 0.00 0.00 0.00 0.00 0.00 0.02 0.08 0.18 0.12 0.03 0.02 0.06 0.03 0.02 0.01 0.00 0.00 0.00 0.00 0.00
0.00 0.00 0.00 0.00 0.00 0.00 0.00 0.00 0.00 0.00 0.00 0.00 0.00 0.00 0.00 0.00 0.00 0.00 0.00 0.00 0.00 0.00 0.00 0.00 0.00 0.00 0.00 0.00 0.00 0.00 0.04 0.04 0.12 0.06 0.02 0.04 0.08 0.05 0.03 0.01 0.00 0.00 0.00 0.00 0.00
0.00 0.00 0.00 0.00 0.00 0.00 0.00 0.00 0.00 0.00 0.00 0.00 0.00 0.00 0.00 0.00 0.00 0.00 0.00 0.00 0.00 0.00 0.00 0.00 0.00 0.00 0.00 0.00 0.00 0.00 0.04 0.19 0.19 0.07 0.09 0.03 0.05 0.01 0.01 0.00 0.00 0.00 0.00 0.00 0.00
0.00 0.00 0.00 0.00 0.00 0.00 0.00 0.00 0.00 0.00 0.00 0.00 0.00 0.00 0.00 0.00 0.00 0.00 0.00 0.00 0.00 0.00 0.00 0.00 0.00 0.00 0.00 0.00 0.00 0.00 0.02 0.16 0.29 0.15 0.05 0.05 0.08 0.01 0.00 0.00 0.00 0.00 0.00 0.00 0.00
0.00 0.00 0.00 0.00 0.00 0.00 0.00 0.00 0.00 0.00 0.00 0.00 0.00 0.00 0.00 0.00 0.00 0.00 0.00 0.00 0.00 0.00 0.00 0.00 0.00 0.00 0.00 0.00 0.00 0.00 0.00 0.05 0.26 0.19 0.04 0.17 0.08 0.01 0.00 0.00 0.00 0.00 0.00 0.00 0.00
0.00 0.00 0.00 0.00 0.00 0.00 0.00 0.00 0.00 0.00 0.00 0.00 0.00 0.00 0.00 0.00 0.00 0.00 0.00 0.00 0.00 0.00 0.00 0.00 0.00 0.00 0.00 0.00 0.00 0.00 0.00 0.05 0.20 0.25 0.24 0.23 0.06 0.00 0.00 0.01 0.00 0.00 0.00 0.00 0.00
0.00 0.00 0.00 0.00 0.00 0.00 0.00 0.00 0.00 0.00 0.00 0.00 0.00 0.00 0.00 0.00 0.00 0.00 0.00 0.00 0.00 0.00 0.00 0.00 0.00 0.00 0.00 0.00 0.00 0.00 0.00 0.02 0.16 0.17 0.11 0.10 0.10 0.07 0.03 0.09 0.00 0.00 0.00 0.00 0.00
0.00 0.00 0.00 0.00 0.00 0.00 0.00 0.00 0.00 0.00 0.00 0.00 0.00 0.00 0.00 0.00 0.00 0.00 0.00 0.00 0.00 0.00 0.00 0.00 0.00 0.00 0.00 0.00 0.00 0.00 0.00 0.01 0.03 0.08 0.01 0.03 0.14 0.16 0.15 0.11 0.01 0.00 0.00 0.00 0.00
0.00 0.00 0.00 0.00 0.00 0.00 0.00 0.00 0.00 0.00 0.00 0.00 0.00 0.00 0.00 0.00 0.00 0.00 0.00 0.00 0.00 0.00 0.00 0.00 0.00 0.00 0.00 0.00 0.00 0.00 0.00 0.00 0.01 0.00 0.01 0.01 0.05 0.09 0.09 0.14 0.09 0.00 0.00 0.00 0.00
0.00 0.00 0.00 0.00 0.00 0.00 0.00 0.00 0.00 0.00 0.00 0.00 0.00 0.00 0.00 0.00 0.00 0.00 0.00 0.00 0.00 0.00 0.00 0.00 0.00 0.00 0.00 0.00 0.00 0.00 0.00 0.00 0.00 0.00 0.00 0.00 0.00 0.01 0.04 0.16 0.08 0.01 0.00 0.00 0.00
0.00 0.00 0.00 0.00 0.00 0.00 0.00 0.00 0.00 0.00 0.00 0.00 0.00 0.00 0.00 0.00 0.00 0.00 0.00 0.00 0.00 0.00 0.00 0.00 0.00 0.00 0.00 0.00 0.00 0.00 0.00 0.00 0.00 0.00 0.00 0.00 0.00 0.00 0.00 0.05 0.04 0.00 0.00 0.00 0.00
0.00 0.00 0.00 0.00 0.00 0.00 0.00 0.00 0.00 0.00 0.00 0.00 0.00 0.00 0.00 0.00 0.00 0.00 0.00 0.00 0.00 0.00 0.00 0.00 0.00 0.00 0.00 0.00 0.00 0.00 0.00 0.00 0.03 0.03 0.01 0.00 0.00 0.00 0.00 0.01 0.01 0.00 0.02 0.01 0.00
0.00 0.00 0.00 0.00 0.00 0.00 0.00 0.00 0.00 0.00 0.00 0.00 0.00 0.00 0.00 0.00 0.00 0.00 0.00 0.00 0.00 0.00 0.00 0.00 0.00 0.00 0.00 0.00 0.00 0.00 0.00 0.02 0.04 0.02 0.00 0.00 0.00 0.00 0.00 0.00 0.00 0.00 0.00 0.00 0.00
0.00 0.00 0.00 0.00 0.00 0.00 0.00 0.00 0.00 0.00 0.00 0.00 0.00 0.00 0.00 0.00 0.00 0.00 0.00 0.00 0.00 0.00 0.00 0.00 0.00 0.00 0.00 0.00 0.00 0.00 0.00 0.00 0.00 0.00 0.00 0.02 0.01 0.00 0.00 0.00 0.00 0.00 0.00 0.03 0.04
0.00 0.00 0.00 0.00 0.00 0.00 0.00 0.00 0.00 0.00 0.00 0.00 0.00 0.00 0.00 0.00 0.00 0.00 0.00 0.00 0.00 0.00 0.00 0.00 0.00 0.00 0.00 0.00 0.00 0.00 0.00 0.00 0.00 0.00 0.00 0.01 0.00 0.00 0.02 0.05 0.00 0.01 0.04 0.03 0.06
0.00 0.00 0.00 0.00 0.00 0.00 0.00 0.00 0.00 0.00 0.00 0.00 0.00 0.00 0.00 0.00 0.00 0.00 0.00 0.00 0.00 0.00 0.00 0.00 0.00 0.00 0.00 0.00 0.00 0.00 0.00 0.00 0.00 0.00 0.00 0.00 0.01 0.00 0.02 0.03 0.07 0.01 0.01 0.01 0.02
0.00 0.00 0.00 0.00 0.00 0.00 0.00 0.00 0.00 0.00 0.00 0.00 0.00 0.00 0.00 0.00 0.00 0.00 0.00 0.00 0.00 0.00 0.00 0.00 0.00 0.00 0.00 0.00 0.00 0.00 0.00 0.00 0.00 0.00 0.00 0.01 0.02 0.01 0.02 0.05 0.07 0.05 0.03 0.02 0.00
0.00 0.00 0.00 0.00 0.00 0.00 0.00 0.00 0.00 0.00 0.00 0.00 0.00 0.00 0.00 0.00 0.00 0.00 0.00 0.00 0.00 0.00 0.00 0.00 0.00 0.00 0.00 0.00 0.00 0.00 0.00 0.00 0.00 0.00 0.00 0.01 0.01 0.02 0.00 0.03 0.03 0.01 0.01 0.00 0.00
0.00 0.00 0.00 0.00 0.00 0.00 0.00 0.00 0.00 0.00 0.00 0.00 0.00 0.00 0.00 0.00 0.00 0.00 0.00 0.00 0.00 0.00 0.00 0.00 0.00 0.00 0.00 0.00 0.00 0.00 0.00 0.00 0.00 0.00 0.00 0.01 0.01 0.04 0.01 0.01 0.00 0.01 0.01 0.04 0.09
0.00 0.00 0.00 0.00 0.00 0.00 0.00 0.00 0.00 0.00 0.00 0.00 0.00 0.00 0.00 0.00 0.00 0.00 0.00 0.00 0.00 0.00 0.00 0.00 0.00 0.00 0.00 0.00 0.00 0.00 0.00 0.00 0.00 0.00 0.00 0.00 0.00 0.01 0.01 0.00 0.00 0.00 0.00 0.00 0.01
0.00 0.00 0.00 0.00 0.00 0.00 0.00 0.00 0.00 0.00 0.00 0.00 0.00 0.00 0.00 0.00 0.00 0.00 0.00 0.00 0.00 0.00 0.00 0.00 0.00 0.00 0.00 0.00 0.00 0.00 0.00 0.00 0.00 0.00 0.00 0.00 0.00 0.00 0.00 0.00 0.00 0.00 0.00 0.00 0.00
0.00 0.00 0.00 0.00 0.00 0.00 0.00 0.00 0.00 0.00 0.00 0.00 0.00 0.00 0.00 0.00 0.00 0.00 0.00 0.00 0.00 0.00 0.00 0.00 0.00 0.00 0.00 0.00 0.00 0.00 0.00 0.00 0.00 0.00 0.00 0.00 0.00 0.00 0.00 0.00 0.00 0.00 0.00 0.00 0.00
0.00 0.00 0.00 0.00 0.00 0.00 0.00 0.00 0.00 0.00 0.00 0.00 0.00 0.00 0.00 0.00 0.00 0.00 0.00 0.00 0.00 0.00 0.00 0.00 0.00 0.00 0.00 0.00 0.00 0.00 0.00 0.00 0.00 0.00 0.00 0.00 0.00 0.00 0.00 0.00 0.00 0.00 0.00 0.00 0.00
MSLP
1016.76 1016.50 1016.24 1016.03 1015.82 1015.61 1015.33 1015.12 1014.97 1014.73 1014.53 1014.39 1014.18 1014.00 1013.69 1013.41 1012.87 1012.61 1011.59 1008.92 1009.01 1008.89 1009.00 1009.70 1010.14 1010.31 1010.36 1010.44 1010.29 1010.49 1011.04 1010.87 1010.55 1010.15 1010.68 1010.66 1010.29 1010.55 1010.47 1010.41 1011.20 1011.56 1012.63 1013.89 1014.96
1016.67 1016.36 1016.11 1015.83 1015.63 1015.39 1015.14 1014.94 1014.76 1014.58 1014.40 1014.22 1014.06 1013.84 1013.59 1013.29 1012.90 1011.38 1008.09 1008.16 1008.43 1008.61 1009.05 1009.51 1009.91 1010.32 1010.47 1010.27 1010.12 1010.65 1010.96 1010.42 1010.19 1010.13 1010.46 1010.58 1010.23 1010.46 1010.80 1011.31 1011.89 1012.51 1013.70 1014.44 1015.31
1016.59 1016.24 1015.92 1015.69 1015.41 1015.13 1014.93 1014.75 1014.51 1014.38 1014.23 1014.11 1013.90 1013.67 1013.50 1013.24 1012.48 1008.25 1006.50 1007.52 1008.07 1008.38 1008.79 1009.14 1009.43 1009.83 1010.20 1010.02 1009.94 1010.56 1010.01 1010.29 1009.98 1010.18 1009.92 1010.34 1010.57 1010.74 1011.08 1011.75 1011.90 1012.69 1013.81 1014.64 1015.53
1016.31 1016.03 1015.74 1015.40 1015.15 1015.02 1014.73 1014.50 1014.36 1014.13 1014.02 1013.92 1013.73 1013.44 1013.26 1013.11 1010.54 1006.65 1006.48 1007.09 1007.84 1008.45 1009.06 1009.24 1009.57 1009.88 1009.88 1009.78 1009.83 1010.05 1010.19 1010.13 1009.41 1009.41 1010.00 1010.36 1010.50 1011.01 1011.52 1011.94 1012.10 1012.78 1013.52 1014.53 1015.37
1015.97 1015.71 1015.41 1015.10 1014.70 1014.51 1014.37 1014.20 1014.09 1013.98 1013.80 1013.73 1013.51 1013.33 1013.09 1012.22 1009.22 1006.49 1006.04 1007.01 1007.93 1008.52 1008.88 1009.06 1009.49 1009.61 1009.64 1009.49 1009.76 1009.77 1009.61 1009.75 1009.58 1009.67 1009.86 1010.15 1010.53 1010.96 1012.28 1012.37 1012.60 1013.12 1013.73 1014.51 1015.23
1015.64 1015.36 1015.05 1014.71 1014.41 1014.07 1013.84 1013.72 1013.76 1013.77 1013.70 1013.49 1013.31 1013.22 1012.97 1010.89 1006.98 1006.64 1006.74 1007.42 1007.78 1008.24 1008.70 1008.73 1008.94 1009.10 1009.37 1009.23 1009.20 1008.95 1009.17 1009.36 1009.60 1009.88 1009.93 1010.32 1010.82 1011.09 1012.14 1012.31 1012.75 1013.15 1013.81 1014.43 1014.85
1015.44 1015.00 1014.75 1014.63 1014.33 1014.08 1013.66 1013.37 1013.26 1013.35 1013.37 1013.30 1013.13 1013.03 1012.26 1008.86 1007.22 1007.02 1007.24 1007.58 1007.80 1008.01 1008.58 1008.54 1008.66 1009.02 1009.25 1008.98 1008.69 1008.91 1009.66 1009.87 1009.82 1009.99 1010.16 1010.77 1011.50 1011.39 1011.89 1012.33 1012.65 1013.08 1013.71 1014.28 1014.82
1015.18 1014.81 1014.43 1014.10 1013.86 1013.75 1013.63 1013.23 1013.03 1012.88 1013.05 1012.96 1013.09 1012.80 1010.74 1007.65 1007.31 1007.32 1007.42 1007.71 1007.99 1008.24 1008.40 1008.37 1008.60 1009.01 1009.21 1008.81 1008.51 1009.13 1009.58 1010.17 1009.99 1010.45 1010.58 1010.81 1011.58 1011.78 1011.89 1012.25 1012.49 1012.88 1013.52 1014.05 1014.58
1015.01 1014.58 1014.19 1013.82 1013.59 1013.40 1013.17 1013.09 1012.76 1012.64 1012.67 1012.71 1013.01 1012.33 1009.48 1007.28 1007.22 1006.61 1006.99 1007.28 1007.87 1008.55 1008.60 1008.31 1008.70 1009.03 1008.96 1009.22 1009.36 1009.68 1010.02 1010.34 1010.91 1010.99 1010.82 1011.40 1011.81 1012.02 1012.20 1012.16 1012.58 1012.85 1013.43 1013.77 1014.70
1014.71 1014.35 1013.98 1013.63 1013.32 1013.04 1012.91 1012.65 1012.62 1012.56 1012.46 1012.64 1012.34 1011.85 1008.68 1006.91 1006.21 1006.11 1006.59 1007.05 1007.59 1008.42 1008.71 1008.56 1008.91 1009.30 1009.55 1009.57 1009.92 1009.99 1010.14 1010.22 1010.64 1011.61 1011.25 1011.54 1011.62 1011.95 1012.28 1012.05 1012.35 1012.68 1013.31 1013.81 1014.45
1014.63 1014.11 1013.63 1013.35 1013.10 1013.01 1012.65 1012.58 1012.86 1012.53 1011.92 1010.47 1009.72 1008.76 1007.29 1006.11 1005.52 1005.78 1006.21 1007.08 1007.12 1007.95 1008.46 1008.63 1009.31 1009.37 1009.30 1009.32 1009.40 1009.72 1009.94 1010.63 1011.52 1011.28 1012.27 1011.60 1011.61 1011.90 1012.49 1012.70 1013.04 1012.87 1013.05 1013.52 1014.12
1014.12 1014.12 1013.69 1013.15 1012.84 1012.86 1013.18 1012.24 1010.76 1010.36 1009.90 1008.72 1008.33 1007.92 1006.84 1006.38 1006.12 1005.68 1005.83 1007.06 1007.27 1007.84 1008.28 1008.98 1008.82 1008.54 1008.57 1008.91 1009.19 1009.62 1009.94 1010.91 1012.02 1012.70 1012.80 1012.00 1012.22 1012.41 1012.68 1012.78 1012.44 1012.69 1013.05 1013.37 1014.00
1013.91 1013.52 1013.41 1013.06 1012.82 1012.79 1012.40 1011.14 1009.62 1009.49 1009.65 1007.87 1007.38 1006.68 1005.89 1006.03 1005.70 1005.49 1005.80 1006.39 1007.03 1007.79 1008.37 1008.69 1008.22 1007.92 1008.17 1008.48 1008.93 1009.50 1009.78 1010.54 1011.13 1012.48 1012.73 1012.28 1013.17 1012.98 1012.84 1012.64 1012.89 1012.90 1012.88 1013.17 1013.68
1013.42 1013.15 1012.87 1012.39 1012.86 1011.94 1011.14 1009.91 1009.56 1009.34 1009.54 1007.75 1006.59 1005.24 1005.30 1005.29 1005.27 1004.77 1005.24 1005.97 1006.70 1007.34 1008.15 1008.26 1007.77 1007.76 1007.89 1008.16 1008.55 1009.08 1009.36 1009.82 1010.87 1012.17 1012.99 1012.92 1013.48 1013.40 1013.25 1013.34 1013.36 1012.74 1012.97 1012.97 1013.49
1013.02 1012.65 1012.41 1012.26 1012.36 1011.60 1009.74 1009.07 1009.03 1009.31 1009.16 1007.23 1005.82 1004.60 1004.95 1005.25 1005.00 1004.86 1004.96 1005.56 1006.40 1007.10 1007.92 1008.07 1007.59 1007.55 1007.52 1007.46 1007.88 1008.34 1008.86 1009.58 1011.01 1012.10 1012.87 1013.63 1013.57 1013.26 1013.09 1013.21 1012.67 1012.50 1012.60 1012.91 1013.28
1013.12 1012.92 1012.73 1012.52 1012.27 1010.09 1009.26 1008.91 1008.88 1010.02 1009.08 1007.49 1006.34 1005.87 1005.55 1005.38 1005.31 1005.14 1005.31 1005.56 1006.24 1007.14 1007.57 1007.79 1007.16 1007.12 1006.78 1006.54 1007.07 1007.56 1008.77 1010.24 1011.86 1012.67 1013.39 1012.86 1013.14 1012.97 1012.58 1011.60 1012.19 1012.25 1012.31 1012.84 1013.22
1012.65 1012.12 1012.30 1011.84 1010.18 1009.27 1009.15 1009.32 1010.18 1010.13 1009.61 1009.00 1007.96 1007.27 1006.99 1006.48 1006.29 1006.06 1006.26 1006.67 1007.17 1007.87 1008.20 1007.75 1007.12 1006.42 1006.12 1006.42 1006.77 1007.48 1009.00 1011.22 1012.51 1013.17 1013.00 1012.35 1013.17 1012.42 1011.91 1011.56 1010.85 1011.73 1012.29 1012.99 1013.25
1012.29 1011.60 1010.89 1010.31 1009.48 1009.27 1009.78 1010.34 1011.03 1010.92 1010.34 1009.52 1008.70 1008.05 1007.82 1007.67 1007.68 1007.45 1007.17 1007.78 1007.87 1008.13 1008.74 1008.47 1007.34 1006.10 1005.71 1005.86 1006.18 1007.22 1008.31 1009.87 1011.25 1012.37 1012.86 1012.92 1013.05 1012.64 1012.12 1011.18 1011.17 1011.58 1012.57 1013.11 1013.81
1011.41 1010.91 1010.34 1008.69 1009.39 1009.74 1010.34 1011.26 1011.68 1011.14 1010.35 1009.82 1009.11 1009.08 1009.11 1008.67 1008.34 1008.76 1008.94 1008.97 1008.76 1008.57 1008.95 1008.69 1007.47 1005.92 1005.20 1005.02 1005.63 1006.92 1007.97 1008.37 1010.15 1011.47 1012.20 1013.32 1013.16 1012.83 1012.47 1011.90 1012.13 1012.87 1013.62 1014.07 1014.33
1011.74 1010.78 1009.14 1008.32 1008.77 1009.43 1011.00 1011.71 1011.67 1010.89 1010.00 1009.56 1009.53 1009.67 1010.02 1009.87 1009.75 1009.51 1009.69 1009.44 1009.03 1008.87 1008.88 1008.65 1008.26 1006.50 1005.49 1005.06 1005.53 1005.81 1006.88 1008.65 1010.13 1011.74 1013.05 1013.64 1013.57 1013.28 1013.27 1013.10 1013.44 1014.07 1014.23 1014.79 1014.76
1011.48 1010.55 1008.51 1008.13 1008.72 1010.47 1011.99 1011.97 1011.17 1009.93 1009.84 1009.51 1009.38 1009.66 1010.25 1010.29 1010.56 1010.51 1010.44 1009.71 1009.08 1008.79 1008.62 1008.92 1008.98 1007.59 1006.52 1005.90 1005.98 1006.40 1007.12 1008.58 1009.97 1011.19 1012.43 1013.59 1013.65 1012.94 1013.37 1013.76 1014.07 1014.50 1014.81 1015.27 1015.44
1011.49 1010.71 1009.03 1008.64 1009.95 1011.79 1012.04 1011.37 1010.71 1009.70 1009.32 1009.19 1009.17 1009.54 1010.06 1010.44 1010.82 1010.62 1010.50 1009.85 1009.00 1009.05 1009.09 1009.22 1009.47 1008.82 1007.60 1006.44 1006.30 1006.33 1006.85 1007.88 1009.91 1011.68 1012.44 1012.96 1013.93 1013.46 1013.80 1014.48 1014.73 1015.13 1015.18 1015.46 1015.79
1012.38 1011.26 1009.04 1008.73 1010.45 1011.64 1011.66 1011.09 1010.58 1009.93 1009.50 1009.22 1009.31 1009.42 1009.90 1010.35 1010.82 1010.73 1010.27 1009.19 1009.13 1008.98 1009.21 1009.48 1010.00 1009.61 1008.48 1007.63 1006.86 1007.26 1007.48 1007.85 1008.72 1010.37 1012.05 1012.88 1014.07 1013.85 1014.33 1014.66 1014.83 1015.03 1015.51 1015.73 1016.15
1012.62 1012.14 1010.85 1010.27 1010.76 1010.99 1011.20 1011.00 1010.44 1009.80 1009.90 1009.55 1009.54 1009.47 1010.09 1010.56 1010.62 1010.52 1010.20 1009.45 1009.02 1008.96 1009.37 1009.72 1010.81 1010.53 1010.42 1009.87 1009.06 1008.29 1008.08 1007.99 1008.45 1010.28 1011.84 1012.55 1013.16 1013.96 1014.22 1014.64 1015.29 1015.74 1015.86 1016.04 1016.55
1012.56 1012.90 1012.07 1011.78 1011.53 1011.26 1011.01 1010.87 1010.66 1010.51 1010.30 1009.97 1010.10 1009.99 1010.42 1010.97 1011.03 1010.83 1010.39 1009.81 1009.27 1009.29 1009.62 1010.33 1011.32 1011.15 1010.54 1010.24 1009.33 1008.90 1008.42 1008.24 1008.66 1009.41 1010.47 1012.11 1012.17 1012.62 1013.62 1014.49 1015.47 1015.87 1016.40 1016.34 1017.08
1013.04 1012.96 1012.26 1011.96 1011.77 1011.48 1011.35 1011.42 1011.16 1011.09 1011.09 1011.08 1011.06 1010.93 1010.71 1011.59 1011.53 1011.22 1011.23 1010.89 1010.61 1010.17 1010.63 1011.10 1011.77 1011.47 1011.22 1010.15 1009.65 1009.03 1008.56 1008.57 1008.76 1009.51 1010.15 1011.21 1012.70 1013.04 1014.16 1014.77 1015.59 1015.99 1016.48 1016.53 1017.22
1013.10 1012.59 1012.49 1012.45 1012.05 1011.76 1011.91 1011.54 1011.45 1011.33 1011.66 1011.36 1011.34 1011.46 1011.65 1011.48 1011.76 1011.33 1011.44 1011.20 1011.27 1011.61 1012.15 1012.02 1012.39 1012.57 1012.54 1011.50 1009.91 1009.72 1009.98 1009.65 1009.45 1009.62 1009.87 1012.00 1012.12 1013.24 1014.09 1014.91 1015.56 1015.93 1016.28 1016.82 1017.62
Thickness
5710 5708 5707 5707 5708 5709 5711 5714 5716 5719 5722 5725 5729 5732 5735 5739 5744 5746 5750 5777 5779 5785 5787 5783 5781 5780 5783 5775 5782 5780 5753 5743 5744 5750 5751 5769 5773 5780 5785 5782 5783 5784 5773 5768 5769
5705 5704 5703 5703 5702 5703 5705 5707 5711 5714 5718 5721 5724 5729 5733 5736 5740 5749 5784 5782 5783 5785 5780 5774 5770 5775 5768 5772 5776 5761 5749 5757 5770 5772 5764 5770 5778 5775 5775 5774 5771 5772 5771 5769 5766
5700 5699 5698 5697 5697 5698 5700 5701 5704 5707 5711 5715 5720 5724 5728 5733 5737 5769 5793 5785 5783 5784 5781 5783 5781 5777 5769 5773 5774 5761 5753 5764 5770 5772 5781 5775 5772 5780 5772 5762 5772 5764 5764 5767 5761
5697 5695 5694 5693 5693 5693 5694 5696 5698 5701 5705 5708 5713 5720 5724 5728 5740 5782 5790 5787 5783 5781 5776 5777 5773 5765 5764 5763 5773 5762 5767 5771 5781 5788 5779 5770 5778 5770 5767 5768 5780 5777 5773 5769 5762
5695 5693 5691 5690 5690 5691 5691 5691 5693 5696 5698 5701 5707 5713 5719 5725 5742 5784 5790 5785 5780 5777 5771 5771 5764 5766 5759 5769 5768 5767 5773 5778 5784 5785 5781 5781 5773 5770 5757 5769 5780 5777 5773 5768 5765
5693 5690 5689 5688 5688 5689 5690 5690 5689 5689 5692 5696 5701 5705 5711 5717 5770 5778 5781 5778 5776 5773 5770 5773 5765 5771 5766 5769 5768 5780 5776 5778 5782 5780 5783 5770 5771 5771 5767 5774 5774 5774 5770 5769 5767
5689 5687 5685 5681 5681 5682 5685 5687 5687 5687 5687 5690 5695 5700 5706 5726 5763 5769 5772 5771 5773 5772 5764 5770 5771 5764 5769 5767 5782 5784 5764 5770 5776 5778 5770 5773 5757 5764 5769 5772 5772 5772 5772 5770 5768
5686 5684 5682 5681 5680 5678 5677 5680 5682 5684 5683 5686 5688 5694 5705 5748 5754 5758 5764 5763 5767 5769 5767 5770 5770 5766 5764 5777 5779 5767 5769 5747 5756 5769 5774 5770 5741 5762 5772 5772 5769 5773 5772 5771 5770
5681 5680 5679 5678 5677 5676 5677 5674 5677 5679 5680 5681 5681 5689 5703 5743 5740 5755 5760 5757 5757 5756 5760 5770 5765 5755 5765 5753 5743 5754 5735 5751 5748 5763 5770 5758 5743 5763 5768 5771 5769 5771 5770 5770 5766
5678 5676 5675 5675 5674 5674 5672 5673 5671 5673 5676 5676 5680 5683 5711 5726 5742 5750 5756 5756 5750 5747 5745 5750 5744 5735 5737 5737 5717 5736 5743 5754 5751 5751 5764 5751 5753 5762 5763 5770 5762 5772 5770 5769 5767
5670 5671 5673 5672 5671 5669 5670 5669 5667 5666 5672 5685 5694 5702 5717 5736 5748 5743 5748 5743 5748 5740 5725 5740 5725 5719 5740 5748 5750 5747 5750 5740 5742 5742 5738 5750 5757 5758 5758 5761 5760 5768 5767 5770 5766
5670 5663 5664 5666 5667 5665 5660 5668 5677 5680 5672 5692 5697 5700 5718 5727 5718 5733 5747 5726 5729 5719 5730 5719 5719 5743 5755 5753 5751 5744 5748 5734 5740 5739 5740 5753 5747 5756 5755 5758 5767 5765 5767 5768 5769
5664 5663 5661 5661 5660 5659 5659 5670 5683 5684 5665 5686 5696 5702 5713 5720 5716 5724 5736 5729 5722 5716 5716 5712 5737 5750 5750 5746 5740 5739 5740 5735 5740 5738 5736 5742 5732 5741 5752 5760 5760 5767 5771 5772 5772
5663 5663 5663 5664 5660 5662 5664 5674 5676 5680 5643 5673 5689 5705 5714 5718 5711 5737 5738 5730 5720 5710 5714 5719 5739 5741 5739 5737 5739 5730 5747 5757 5740 5728 5714 5738 5718 5726 5735 5741 5745 5763 5764 5771 5772
5662 5663 5663 5662 5658 5661 5675 5679 5679 5673 5625 5678 5689 5717 5711 5703 5713 5720 5737 5728 5710 5713 5712 5710 5726 5729 5730 5741 5747 5742 5757 5753 5739 5727 5717 5721 5719 5729 5734 5732 5746 5759 5764 5768 5772
5655 5654 5655 5656 5654 5670 5674 5677 5673 5634 5633 5660 5679 5680 5690 5698 5703 5713 5717 5727 5722 5712 5716 5713 5735 5735 5739 5754 5755 5760 5741 5728 5716 5713 5702 5721 5725 5726 5727 5748 5746 5762 5766 5767 5771
5655 5660 5657 5658 5669 5674 5673 5665 5628 5619 5652 5645 5657 5669 5671 5676 5685 5695 5693 5690 5681 5674 5680 5703 5716 5738 5749 5741 5748 5743 5719 5686 5687 5689 5702 5722 5718 5733 5745 5755 5769 5763 5764 5766 5768
5654 5661 5666 5667 5672 5671 5663 5643 5617 5633 5634 5651 5659 5664 5666 5670 5670 5672 5680 5671 5689 5688 5671 5674 5683 5726 5746 5740 5735 5727 5723 5693 5684 5685 5702 5720 5714 5729 5746 5764 5771 5769 5767 5760 5759
5660 5664 5669 5678 5670 5665 5649 5614 5618 5631 5644 5645 5654 5646 5646 5659 5666 5664 5658 5660 5673 5682 5671 5670 5688 5734 5748 5754 5750 5734 5716 5739 5711 5716 5706 5699 5717 5734 5744 5752 5757 5750 5753 5750 5754
5656 5665 5673 5677 5671 5662 5633 5623 5626 5638 5649 5650 5639 5645 5638 5640 5649 5652 5650 5665 5667 5680 5684 5685 5679 5719 5737 5752 5749 5744 5746 5713 5702 5687 5688 5691 5702 5707 5725 5738 5739 5735 5741 5742 5749
5661 5663 5679 5677 5670 5643 5617 5616 5634 5649 5648 5644 5641 5641 5637 5643 5640 5639 5644 5663 5672 5675 5686 5683 5678 5699 5723 5725 5724 5728 5723 5713 5711 5701 5683 5678 5697 5731 5725 5732 5732 5734 5737 5737 5740
5656 5652 5674 5675 5640 5615 5619 5631 5643 5649 5652 5646 5647 5642 5640 5642 5640 5642 5644 5653 5675 5674 5673 5679 5669 5675 5702 5725 5733 5736 5729 5722 5695 5698 5685 5692 5693 5728 5727 5725 5728 5728 5734 5736 5737
5647 5648 5674 5672 5631 5619 5628 5638 5642 5644 5644 5644 5640 5646 5644 5640 5636 5641 5649 5668 5672 5676 5675 5679 5663 5659 5682 5701 5715 5709 5720 5719 5714 5704 5687 5689 5693 5720 5719 5720 5725 5727 5730 5731 5731
5644 5641 5652 5651 5639 5638 5634 5635 5637 5647 5640 5643 5642 5644 5637 5633 5638 5641 5647 5665 5673 5678 5682 5675 5656 5660 5650 5667 5684 5696 5708 5719 5715 5693 5680 5686 5704 5710 5717 5718 5718 5719 5725 5725 5723
5644 5636 5642 5631 5638 5636 5636 5637 5632 5626 5636 5635 5634 5639 5632 5624 5627 5632 5644 5653 5670 5673 5674 5665 5653 5663 5673 5677 5687 5697 5701 5713 5713 5710 5707 5693 5708 5716 5717 5716 5712 5716 5713 5716 5715
5638 5636 5638 5635 5637 5638 5629 5629 5628 5628 5627 5625 5622 5627 5631 5613 5622 5628 5632 5641 5648 5662 5658 5655 5647 5662 5664 5679 5681 5689 5700 5707 5709 5703 5702 5707 5695 5712 5710 5710 5709 5710 5709 5711 5711
5639 5641 5639 5633 5633 5633 5625 5631 5629 5628 5627 5630 5630 5623 5621 5629 5631 5638 5639 5643 5646 5642 5635 5644 5642 5642 5644 5657 5673 5665 5676 5683 5700 5707 5708 5687 5703 5703 5702 5704 5704 5705 5707 5704 5702